User: anonymous   Login
Location: STAR School
(35.3054°N, 111.2976°W)
Time: 10:20:27
(UTC-07:00)
Language:

STRAND 1 - Orbit

View from above orbital plane
View from above orbital plane
View from above satellite
View from above satellite

Ground track
Ground track

The orbit data is extracted from the following two-line orbital elements,

1 39090U 13009E   19291.86928815 +.00000005 +00000-0 +17049-4 0  9993
2 39090 098.4762 135.7166 0008116 289.0039 071.0267 14.35100770347897
Epoch (UTC): 18 October 2019 20:51:46
Eccentricity: 0.0008116
inclination: 98.4762°
perigee height: 769 km
apogee height: 780 km
right ascension of ascending node: 135.7166°
argument of perigee: 289.0039°
revolutions per day: 14.35100770
mean anomaly at epoch: 71.0267°
orbit number at epoch: 34789

The dashed part of the orbit path shows where the satellite is in the earth's shadow,  

DLR